SCP
3 3 3 2 1 1 1 1 1 1 1 1 1 2 2 2 2 2 1 1 0 0 0 0 0 0 0 0 0 0 0 0 0 1 1 1 1 1
3 3 2 2 1 1 1 1 1 1 1 1 1 2 2 2 1 2 1 1 0 0 0 0 0 0 0 0 0 0 0 0 0 0 1 1 1 0
3 3 2 2 2 2 1 1 1 1 1 1 1 2 2 2 1 1 1 1 1 0 0 0 0 0 0 0 0 0 0 0 0 0 0 0 0 0
4 3 3 2 2 2 2 1 1 1 1 1 1 2 2 2 1 1 1 1 1 0 0 0 0 0 0 0 0 0 0 0 0 0 0 0 0 0
4 4 4 3 3 2 2 2 1 1 1 1 1 2 2 2 1 1 1 1 1 1 0 0 0 0 0 0 0 0 0 0 0 0 0 0 0 0
5 5 4 4 3 2 2 2 1 1 1 1 1 1 1 1 2 2 1 1 1 1 1 1 0 0 0 0 0 0 0 0 0 0 0 0 0 0
5 5 4 3 2 2 2 1 1 1 1 1 1 1 1 1 2 2 2 1 1 1 1 1 1 1 1 0 0 0 0 0 0 0 0 0 0 0
4 4 3 2 1 1 1 1 1 1 1 1 1 1 1 1 1 1 1 1 1 1 1 1 1 1 1 1 0 0 0 0 0 0 0 0 0 0
4 4 3 2 1 1 1 1 1 1 1 1 1 1 1 1 1 1 1 1 1 2 2 2 1 1 1 1 1 0 0 0 0 0 0 0 0 0
4 4 3 3 2 2 1 1 1 1 1 1 1 1 1 1 1 1 1 1 1 2 2 2 1 1 1 1 1 0 0 0 0 0 0 0 0 0
4 4 3 3 2 1 1 2 2 1 1 1 1 1 1 1 1 1 1 1 1 1 2 1 1 1 1 1 1 0 0 0 0 0 0 0 0 0
4 3 3 2 1 1 1 2 2 2 1 1 1 1 1 1 1 1 1 1 1 1 1 1 1 1 1 1 1 1 0 0 0 0 0 0 0 0
3 3 2 1 1 0 1 1 1 1 1 1 1 1 1 1 1 1 1 1 1 1 1 1 1 1 1 1 1 1 0 0 0 0 0 0 0 0
4 4 3 1 0 0 0 1 1 1 1 1 1 1 1 1 1 1 1 2 2 2 1 1 1 1 1 1 0 1 1 1 1 0 0 0 0 0
4 4 2 1 0 0 0 0 0 1 1 1 1 1 1 1 1 1 1 2 2 1 2 2 2 1 1 1 0 0 1 1 1 1 1 1 0 0
3 3 2 1 0 0 0 0 0 1 1 1 1 1 1 1 1 1 1 1 1 1 2 2 2 2 2 1 1 1 1 1 1 2 2 1 1 1
2 3 2 1 1 1 1 1 1 1 1 1 1 1 1 1 1 1 1 1 1 1 1 2 3 3 2 2 1 1 1 1 2 2 2 2 2 2
2 3 3 2 2 2 1 1 1 1 1 1 1 1 1 1 1 1 1 1 1 1 1 1 2 2 2 1 1 1 1 1 2 2 2 2 2 2
2 3 3 3 2 2 2 1 1 1 1 1 1 1 1 1 1 1 1 1 1 1 1 1 2 2 1 1 1 1 1 1 1 2 2 2 2 2
2 3 4 4 3 2 2 1 1 1 1 1 1 1 1 1 1 1 1 1 1 1 1 1 1 1 1 1 0 0 1 1 1 2 2 2 2 2
2 3 4 4 3 2 2 1 1 1 1 1 1 1 1 1 1 1 1 1 1 1 1 1 1 1 1 0 0 0 0 1 1 1 2 2 2 2
1 2 3 3 2 2 1 1 1 1 1 1 1 2 2 2 2 2 2 1 1 1 1 1 1 1 1 1 0 0 0 0 1 1 1 1 2 2
1 1 1 2 1 1 1 1 1 1 1 1 1 2 3 3 3 3 2 2 2 2 1 1 1 1 1 1 1 0 0 0 0 0 0 0 1 1
Wind_Speed
1 1 2 2 1 2 1 1 1 1 1 2 1 2 3 4 8 6 6 8 8 7 6 6 6 6 5 5 4 4 4 5 5 5 5 5 4 3
1 1 1 2 2 2 1 1 1 1 1 1 1 2 3 4 6 4 6 9 9 8 7 7 6 6 6 5 5 5 5 6 6 6 6 6 5 4
2 2 1 2 2 2 2 1 1 0 1 1 1 2 2 3 3 3 4 5 6 9 9 8 7 7 6 6 6 6 6 6 6 6 6 6 5 5
1 1 1 2 1 2 2 2 1 1 1 1 1 1 2 3 3 4 4 5 5 9 10 10 9 8 7 7 6 6 6 5 6 6 6 6 6 5
2 2 2 2 2 1 2 2 2 2 0 1 1 1 1 1 2 2 3 2 4 6 10 10 10 10 9 8 8 7 6 5 5 5 5 5 5 5
2 2 2 2 2 2 2 2 1 1 1 1 1 1 1 1 2 2 2 2 3 4 5 7 9 11 10 10 9 8 7 6 6 5 5 5 5 5
2 2 1 1 2 1 2 1 1 1 1 1 1 1 1 1 2 2 3 3 3 3 2 3 4 5 6 9 10 9 9 8 7 6 6 6 6 5
2 2 2 3 2 3 3 2 1 2 2 2 2 2 2 1 2 2 2 1 2 2 2 3 4 4 5 5 9 11 10 9 9 8 8 7 7 7
2 2 3 2 1 1 2 3 3 3 4 2 2 2 2 2 2 3 2 2 2 2 2 3 3 3 3 4 9 11 12 11 11 10 9 9 8 7
2 2 2 1 1 1 2 2 2 2 4 4 3 3 2 2 2 3 3 3 3 2 2 2 2 3 2 2 7 9 11 11 11 10 9 8 8 8
2 1 1 1 1 1 2 2 2 3 4 3 4 4 4 4 3 2 2 2 3 3 2 2 2 2 1 2 4 8 9 9 10 10 9 8 8 7
1 0 0 1 1 1 2 3 3 3 2 3 3 4 5 6 7 5 3 3 3 2 2 2 2 1 1 1 2 3 4 6 8 9 9 9 8 5
2 1 1 1 1 2 2 2 3 3 3 3 3 3 3 4 4 5 4 3 3 2 1 1 1 1 1 1 1 2 3 3 4 5 8 10 10 8
2 1 0 1 2 3 3 4 4 4 3 3 3 3 3 3 3 3 4 4 3 3 2 1 1 1 1 2 2 2 2 3 3 3 4 7 9 10
2 2 2 3 3 4 5 5 4 3 3 3 3 3 3 3 2 2 2 3 4 4 4 3 2 2 2 3 3 2 2 2 3 3 3 3 4 5
2 2 2 3 4 4 3 4 4 3 3 3 3 3 2 2 2 2 2 2 3 3 4 4 4 3 3 3 3 3 2 2 2 2 2 3 3 3
2 2 2 2 2 2 2 2 3 3 3 3 3 3 3 2 2 2 2 2 3 3 3 3 4 3 4 3 3 2 2 2 2 2 2 2 3 3
1 2 2 2 3 3 3 2 2 2 3 3 3 3 3 2 2 2 2 2 3 3 3 2 2 2 2 3 3 3 2 2 2 2 2 2 2 2
3 4 3 2 3 3 2 2 2 2 2 3 3 3 2 2 2 2 2 2 3 3 3 2 2 2 3 3 3 3 3 3 2 2 2 2 3 2
4 4 3 2 2 2 2 2 2 2 2 2 3 2 2 2 2 2 2 2 2 3 3 2 2 2 3 4 3 3 4 4 3 3 2 2 1 2
4 3 2 2 2 2 2 2 2 2 2 2 2 2 2 2 2 2 2 2 2 2 3 3 3 4 3 2 2 2 2 4 4 3 3 2 2 2
3 3 2 2 2 2 2 2 2 2 2 2 2 2 2 2 3 3 2 2 3 3 3 3 3 3 2 3 3 3 2 1 1 2 3 3 3 3
3 2 2 2 2 2 2 3 3 2 2 2 3 2 2 2 2 2 2 3 3 3 3 3 2 2 3 3 3 2 3 2 1 1 1 3 4 5
Wind_Direction
264 286 291 286 277 279 272 244 221 252 245 216 180 145 140 138 155 165 160 176 181 187 194 202 207 208 208 210 214 219 227 229 225 225 227 228 228 226
224 244 274 297 301 295 278 270 243 226 252 223 184 157 144 138 163 172 165 174 187 193 197 201 199 200 204 211 219 226 231 232 232 230 225 216 215 217
248 242 227 264 308 312 310 302 295 247 241 265 167 144 132 135 153 184 172 177 191 200 200 200 201 202 205 211 220 230 236 235 232 228 220 212 210 211
246 272 255 253 262 286 300 297 302 278 240 239 175 162 161 154 175 199 191 199 195 197 198 202 205 207 209 216 223 232 236 231 222 216 210 208 208 209
233 251 267 270 266 264 282 292 296 295 281 226 210 165 171 176 178 221 222 213 212 199 199 205 209 210 213 218 223 227 229 223 210 203 200 202 206 208
233 233 254 266 266 266 259 272 293 313 297 269 242 191 188 198 175 214 240 234 232 210 203 201 209 213 217 218 221 221 218 215 210 205 203 204 207 210
243 236 250 275 279 270 275 302 297 285 279 259 248 226 203 190 213 226 228 230 236 213 203 205 197 211 218 225 224 220 210 207 207 208 208 211 214 215
252 246 228 230 219 208 214 225 233 246 266 270 274 254 237 222 234 242 239 245 247 223 200 226 198 208 211 205 206 206 207 205 206 208 210 212 215 217
249 254 257 244 216 226 207 218 232 239 232 240 265 276 261 242 236 256 253 252 249 248 220 245 219 214 215 203 194 199 202 203 206 207 211 214 214 216
234 240 240 257 290 307 258 238 236 244 237 225 239 256 262 273 242 246 256 257 249 256 214 245 250 233 219 185 188 190 197 201 203 207 211 214 216 214
252 250 226 192 237 283 271 259 252 260 262 254 236 241 249 252 248 267 262 261 265 248 211 213 251 255 216 189 189 195 198 201 203 205 209 214 216 209
262 156 77 188 245 263 258 260 255 265 278 284 273 255 249 238 228 224 237 247 264 253 214 206 237 241 269 234 176 182 205 213 208 208 211 215 210 201
276 248 179 136 207 242 257 259 254 280 285 271 263 256 245 233 219 216 222 229 241 253 239 199 246 245 233 261 235 203 199 198 196 212 215 217 208 197
293 303 350 207 253 262 262 265 277 284 270 266 265 260 255 247 238 222 219 220 216 227 242 217 229 233 249 265 261 237 224 210 194 200 200 203 211 212
317 340 308 263 263 260 250 253 262 261 261 259 264 265 258 249 243 234 225 222 228 233 232 214 213 230 226 240 251 247 251 233 205 199 195 189 194 191
297 300 259 255 262 259 253 244 237 244 256 263 268 270 272 264 247 233 229 230 234 233 235 225 218 224 238 245 245 247 230 223 215 205 195 199 200 202
313 291 266 253 254 251 245 241 238 238 240 248 257 261 263 261 256 240 227 237 240 240 244 233 220 221 228 231 250 250 238 235 221 210 211 221 219 205
252 261 255 254 257 256 248 245 246 251 252 248 250 256 258 257 256 250 237 234 244 247 245 237 218 226 255 262 233 240 238 241 238 226 216 225 238 217
236 246 239 237 254 263 260 254 248 246 255 262 253 248 255 261 266 258 247 240 243 246 245 238 228 217 233 249 252 228 234 235 222 224 225 225 229 225
238 242 238 234 241 250 266 276 277 272 263 270 277 264 254 257 264 269 261 249 247 253 260 247 226 220 229 242 249 256 230 231 224 222 232 241 242 226
246 248 247 251 253 255 258 254 254 266 266 257 271 287 283 272 266 270 272 268 261 258 258 254 248 246 246 239 245 254 247 232 226 212 214 217 241 241
250 252 258 258 256 260 265 264 256 259 263 259 257 257 264 267 266 266 271 269 260 259 265 264 257 255 246 239 243 242 250 260 260 258 245 217 208 222
262 261 267 272 270 270 276 284 284 273 273 280 278 270 273 269 260 258 257 267 277 280 276 273 267 254 251 249 254 247 246 236 231 240 275 255 238 247